Ephrata, WA
on Monday, November 19, 2012

Monday
Previous Day Next Day
Daily Summary
 ActualAverageRecord
Temperature
Mean Temperature °F / °C 36°F / 2°C  
Max Temperature 57°F / 14°C 43°F / 6°C 60°F / 15°C (1962)
Min Temperature 43°F / 6°C 28°F / -2°C 5°F / -15°C (1985)
Degree Days
Heating Degree Days 15 29  
Month to date heating degree days 443 488  
Since 1 July heating degree days 938 1069  
Cooling Degree Days 0 0  
Month to date cooling degree days 0 0  
Year to date cooling degree days 837 772  
Moisture
Dew Point 41°F / 5°C   
Average Humidity 72    
Maximum Humidity 89    
Minimum Humidity 55    
Precipitation
Precipitation 0.10 in / 2.54 cm 0.04 in / 1.02 cm 0.33 in / 0.84 cm (1996)
Month to date precipitation 0.81 0.64  
Year to date precipitation 6.67 6.19  
Wind
Wind Speed 13 mph / 20 km/h   
Max Wind Speed 24 mph / 39 km/h   
Max Gust Speed 32 mph / 52 km/h   
Visibility 10 miles / 16 kilometers   
Events Rain   

Key: T is trace of precipitation, MM is missing value
Source: NWS Daily Summary
Time(PST)TemperatureDew PointHumidity Pressure Visibility Wind DirectionWind SpeedGust SpeedPrecipitationEvents Conditions
12:53 AM 44.1°F / 6.7°C 39.9°F / 4.4°C 85% 29.75 in / 1007.2 hPa 8.0 miles / 12.9 kilometers South 13.8 mph / 22.2 km/h - 0.04 in / 1.0 cm Rain Light Rain
1:53 AM 43.0°F / 6.1°C 39.9°F / 4.4°C 89% 29.74 in / 1006.9 hPa 10.0 miles / 16.1 kilometers SSE 13.8 mph / 22.2 km/h - 0.01 in / 0.3 cm Rain Light Rain
2:53 AM 43.0°F / 6.1°C 39.9°F / 4.4°C 89% 29.73 in / 1006.6 hPa 10.0 miles / 16.1 kilometers SSE 12.7 mph / 20.4 km/h - 0.01 in / 0.3 cm   Overcast
3:53 AM 44.1°F / 6.7°C 39.9°F / 4.4°C 85% 29.72 in / 1006.4 hPa 10.0 miles / 16.1 kilometers South 12.7 mph / 20.4 km/h - N/A   Mostly Cloudy
4:53 AM 44.1°F / 6.7°C 39.9°F / 4.4°C 85% 29.72 in / 1006.3 hPa 10.0 miles / 16.1 kilometers SSE 3.5 mph / 5.6 km/h - 0.00 in / 0.0 cm Rain Light Rain
5:53 AM 45.0°F / 7.2°C 41.0°F / 5.0°C 86% 29.70 in / 1005.8 hPa 10.0 miles / 16.1 kilometers South 11.5 mph / 18.5 km/h - 0.00 in / 0.0 cm   Overcast
6:53 AM 46.0°F / 7.8°C 41.0°F / 5.0°C 83% 29.68 in / 1005.1 hPa 10.0 miles / 16.1 kilometers SSE 6.9 mph / 11.1 km/h - 0.01 in / 0.3 cm   Overcast
7:53 AM 44.1°F / 6.7°C 41.0°F / 5.0°C 89% 29.68 in / 1005.1 hPa 10.0 miles / 16.1 kilometers Calm Calm - N/A   Overcast
8:53 AM 48.0°F / 8.9°C 39.9°F / 4.4°C 74% 29.67 in / 1004.5 hPa 10.0 miles / 16.1 kilometers SSE 13.8 mph / 22.2 km/h - N/A   Overcast
9:53 AM 52.0°F / 11.1°C 39.9°F / 4.4°C 63% 29.64 in / 1003.7 hPa 10.0 miles / 16.1 kilometers South 17.3 mph / 27.8 km/h - 0.00 in / 0.0 cm   Overcast
10:53 AM 53.1°F / 11.7°C 39.9°F / 4.4°C 61% 29.62 in / 1003.1 hPa 10.0 miles / 16.1 kilometers South 16.1 mph / 25.9 km/h 25.3 mph / 40.7 km/h N/A   Overcast
11:53 AM 55.0°F / 12.8°C 39.0°F / 3.9°C 55% 29.60 in / 1002.3 hPa 10.0 miles / 16.1 kilometers South 20.7 mph / 33.3 km/h - N/A   Overcast
12:53 PM 55.0°F / 12.8°C 39.9°F / 4.4°C 57% 29.56 in / 1001.0 hPa 10.0 miles / 16.1 kilometers South 16.1 mph / 25.9 km/h - 0.00 in / 0.0 cm   Overcast
1:53 PM 55.9°F / 13.3°C 39.0°F / 3.9°C 53% 29.54 in / 1000.3 hPa 10.0 miles / 16.1 kilometers South 19.6 mph / 31.5 km/h - N/A   Overcast
2:53 PM 55.0°F / 12.8°C 39.9°F / 4.4°C 57% 29.54 in / 1000.2 hPa 10.0 miles / 16.1 kilometers South 12.7 mph / 20.4 km/h - N/A   Overcast
3:53 PM 55.9°F / 13.3°C 39.9°F / 4.4°C 55% 29.55 in / 1000.5 hPa 10.0 miles / 16.1 kilometers South 17.3 mph / 27.8 km/h - N/A   Overcast
4:53 PM 54.0°F / 12.2°C 41.0°F / 5.0°C 62% 29.56 in / 1001.0 hPa 10.0 miles / 16.1 kilometers South 13.8 mph / 22.2 km/h - 0.00 in / 0.0 cm Rain Light Rain
5:53 PM 54.0°F / 12.2°C 45.0°F / 7.2°C 72% 29.61 in / 1002.6 hPa 10.0 miles / 16.1 kilometers SW 19.6 mph / 31.5 km/h 28.8 mph / 46.3 km/h 0.00 in / 0.0 cm Rain Light Rain
6:53 PM 51.1°F / 10.6°C 46.0°F / 7.8°C 83% 29.61 in / 1002.6 hPa 10.0 miles / 16.1 kilometers SSW 6.9 mph / 11.1 km/h - 0.01 in / 0.3 cm Rain Light Rain
7:53 PM 50.0°F / 10.0°C 45.0°F / 7.2°C 83% 29.63 in / 1003.3 hPa 10.0 miles / 16.1 kilometers South 10.4 mph / 16.7 km/h - 0.00 in / 0.0 cm   Overcast
8:53 PM 48.0°F / 8.9°C 44.1°F / 6.7°C 86% 29.66 in / 1004.2 hPa 10.0 miles / 16.1 kilometers SW 8.1 mph / 13.0 km/h - 0.02 in / 0.5 cm Rain Light Rain
9:53 PM 46.9°F / 8.3°C 43.0°F / 6.1°C 86% 29.65 in / 1003.8 hPa 10.0 miles / 16.1 kilometers SSW 10.4 mph / 16.7 km/h - 0.00 in / 0.0 cm Rain Light Rain
10:53 PM 48.0°F / 8.9°C 42.1°F / 5.6°C 80% 29.68 in / 1005.0 hPa 10.0 miles / 16.1 kilometers South 11.5 mph / 18.5 km/h - 0.00 in / 0.0 cm Rain Light Rain
11:53 PM 48.9°F / 9.4°C 42.1°F / 5.6°C 77% 29.72 in / 1006.2 hPa 10.0 miles / 16.1 kilometers SSW 12.7 mph / 20.4 km/h - 0.00 in / 0.0 cm   Overcast
Moon Phase
Nov. 19 Nov. 20 Nov. 28 Dec. 06 Dec. 13
Sunrise:07:08 AM (PST) Moon Rise:12:04 PM (PST)11/19
Sunset:04:17 PM (PST) Moon Set:11:02 PM (PST)11/19

Copyright © 2014 The Weather Underground, Inc.